• MPC Preparation (Info)

  • MPEC 2016-O41 : 2014 DE143

    The following Minor Planet Electronic Circular may be linked-to from your own Web pages, but must not otherwise be redistributed electronically.

    A form allowing access to any MPEC is at the bottom of this page.


    Read MPEC 2016-O40 Read MPEC 2016-O42


    M.P.E.C. 2016-O41                                Issued 2016 July 16, 21:01 UT
    
         The Minor Planet Electronic Circulars contain information on unusual
             minor planets and routine data on comets.  They are published
        on behalf of Division F of the International Astronomical Union by the
              Minor Planet Center, Smithsonian Astrophysical Observatory,
                              Cambridge, MA 02138, U.S.A.
    
                 Prepared using the Tamkin Foundation Computer Network
    
                                  MPC@CFA.HARVARD.EDU
                URL https://www.minorplanetcenter.net/    ISSN 1523-6714
    
                                      2014 DE143
    
    Observations:
         K14DE3E  C2011 04 02.30005 11 22 01.151+04 48 53.11         22.3 wLEO041F51
         K14DE3E  C2011 04 02.31517 11 22 01.086+04 48 53.41         22.3 wLEO041F51
         K14DE3E  C2011 04 02.33137 11 22 01.031+04 48 53.85         22.2 wLEO041F51
         K14DE3E  C2011 04 02.34647 11 22 00.966+04 48 54.32         22.1 wLEO041F51
         K14DE3E  C2012 03 27.34024 11 27 12.156+04 24 52.95         22.7 wLEO041F51
         K14DE3E  C2012 03 27.35470 11 27 12.089+04 24 53.32         22.6 wLEO041F51
         K14DE3E  C2012 03 27.36914 11 27 12.022+04 24 53.71         22.4 wLEO041F51
         K14DE3E  C2013 06 27.27362 11 29 40.509+04 18 47.07         22.4 wLEO041F51
         K14DE3E  C2013 06 27.27889 11 29 40.526+04 18 46.72         22.4 wLEO041F51
         K14DE3E  C2013 06 27.28414 11 29 40.546+04 18 46.77         22.6 wLEO041F51
         K14DE3E* C2014 02 28.40825 11 38 49.559+03 27 47.06         22.3 wLEO041F51
         K14DE3E  C2014 02 28.42075 11 38 49.500+03 27 47.41         22.2 wLEO041F51
         K14DE3E  C2014 02 28.43311 11 38 49.450+03 27 47.91         22.1 wLEO041F51
         K14DE3E  C2014 02 28.44550 11 38 49.399+03 27 48.23         22.3 wLEO041F51
         K14DE3E  C2014 03 05.49714 11 38 28.186+03 30 14.87         22.2 wLEO041F51
         K14DE3E  C2014 03 05.50948 11 38 28.127+03 30 15.11         22.1 wLEO041F51
         K14DE3E  C2014 03 05.52186 11 38 28.090+03 30 15.32         22.2 wLEO041F51
         K14DE3E  C2014 03 24.35443 11 37 07.328+03 39 25.59         22.2 wLEO041F51
         K14DE3E  C2014 03 24.36655 11 37 07.302+03 39 25.78         22.1 wLEO041F51
         K14DE3E  C2014 03 24.37867 11 37 07.220+03 39 26.00         22.3 wLEO041F51
         K14DE3E  C2014 03 24.39083 11 37 07.176+03 39 26.60         22.2 wLEO041F51
         K14DE3E  C2014 05 20.28414 11 34 12.935+03 58 38.44         22.4 wLEO041F51
         K14DE3E  C2014 05 20.29582 11 34 12.902+03 58 38.75         22.6 wLEO041F51
         K14DE3E  C2014 05 20.30750 11 34 12.895+03 58 38.63         22.5 wLEO041F51
         K14DE3E  C2014 05 20.31919 11 34 12.882+03 58 38.78         22.6 wLEO041F51
         K14DE3E  C2015 01 19.53212 11 45 48.345+02 50 01.42         22.4 wLEO041F51
         K14DE3E  C2015 01 19.54561 11 45 48.352+02 50 01.16         22.4 wLEO041F51
         K14DE3E  C2015 01 19.55914 11 45 48.296+02 50 01.58         22.3 wLEO041F51
         K14DE3E  C2015 01 19.57274 11 45 48.271+02 50 01.99         22.5 wLEO041F51
         K14DE3E  C2015 02 16.45578 11 44 27.578+03 00 02.07         22.2 wLEO041F51
         K14DE3E  C2015 02 16.46873 11 44 27.527+03 00 02.55         22.1 wLEO041F51
         K14DE3E  C2015 02 16.48164 11 44 27.474+03 00 02.74         22.4 wLEO041F51
         K14DE3E  C2015 02 16.49458 11 44 27.424+03 00 03.12         22.4 wLEO041F51
    
    Observer details:
    F51 Pan-STARRS 1, Haleakala.  Observers B. Gibson, T. Goggia, N. Primak,
        A. Schultz, M. Willman.  Measurers K. Chambers, S. Chastel, Y.-T. Chen,
        L. Denneau, H. Flewelling, M. Holman, M. Huber, R. Jedicke, M. Lackner,
        E. Lilly, H.-W. Lin, E. Magnier, M. Micheli, M. Payne, P. Veres,
        R. Wainscoat, C. Waters, R. Weryk.  1.8-m Ritchey-Chretien + CCD.
    
    Orbital elements:
    2014 DE143
    Epoch 2016 July 31.0 TT = JDT 2457600.5                 MPC
    M 222.71867              (2000.0)            P               Q
    n   0.00343289     Peri.  150.39693     +0.70188627     +0.71162198
    a  43.5207324      Node   164.11249     -0.67363938     +0.67723835
    e   0.0094598      Incl.    6.46415     -0.23144254     +0.18692881
    P 287              H    5.7           G   0.15           U   3
    Residuals in seconds of arc
    110402 F51  0.0   0.1+    140228 F51  0.1-  0.2-    140520 F51  0.2-  0.2+
    110402 F51  0.1-  0.0     140228 F51  0.1-  0.0     140520 F51  0.1-  0.0
    110402 F51  0.0   0.0     140228 F51  0.0   0.1-    140520 F51  0.0   0.1+
    110402 F51  0.0   0.0     140305 F51  0.1-  0.2+    150119 F51  0.2-  0.2+
    120327 F51  0.2+  0.1+    140305 F51  0.2-  0.0     150119 F51  0.3+  0.3-
    120327 F51  0.1+  0.1+    140305 F51  0.1+  0.1-    150119 F51  0.1-  0.1-
    120327 F51  0.0   0.1+    140324 F51  0.1-  0.2+    150119 F51  0.1-  0.1+
    130627 F51  0.0   0.1-    140324 F51  0.3+  0.1+    150216 F51  0.1+  0.0
    130627 F51  0.1+  0.3-    140324 F51  0.1-  0.0     150216 F51  0.1+  0.1+
    130627 F51  0.2+  0.2-    140324 F51  0.0   0.2+    150216 F51  0.0   0.0
    140228 F51  0.0   0.2-    140520 F51  0.1+  0.0     150216 F51  0.0   0.0
    
    Ephemeris:
    2014 DE143               a,e,i = 43.52, 0.01, 6                  q = 43.109
    Date    TT    R. A. (2000) Decl.     Delta      r     Elong.  Phase     V
    2016 06 16    11 43 36.0 +03 15 54  43.8161 43.8257    89.9     1.3    22.3
    ...
    2016 07 01    11 43 55.9 +03 13 37  44.0661 43.8255    75.7     1.3    22.3
    ...
    2016 07 09    11 44 13.7 +03 11 37  44.1940 43.8253    68.1     1.2    22.3
    ...
    2016 07 15    11 44 30.2 +03 09 48  44.2857 43.8252    62.5     1.2    22.3
    2016 07 16    11 44 33.2 +03 09 28  44.3005 43.8252    61.5     1.2    22.3
    2016 07 17    11 44 36.3 +03 09 07  44.3152 43.8252    60.6     1.2    22.3
    ...
    2016 07 23    11 44 56.2 +03 06 57  44.4004 43.8251    55.0     1.1    22.3
    ...
    2016 07 31    11 45 26.3 +03 03 41  44.5049 43.8250    47.5     1.0    22.3
    ...
    2016 08 15    11 46 32.5 +02 56 34  44.6667 43.8247    33.4     0.7    22.3
    
    A. U. Tomatic                (C) Copyright 2016 MPC           M.P.E.C. 2016-O41
    

    Read MPEC 2016-O40 Read MPEC 2016-O42


    MPEC number:

    Enter an MPEC number in one of the following forms:

    • 1997-B01 (the full form)
    • J97B01 (the packed version of the full form)
    • B01 (the abbreviated form)